• In Czech Republic
  • List of Countries
  • For 7 days
  • Water Temperature
  • Satellite Maps
  • Weather Map
  • Weather Widgets
  • user-avatar
    Login

    Hourly Weather Stretford

    Today, 19 November, Sunday

    Time Temperature Precipitation Wind Pressure Humidity
    00:00 +3°C° 0 mm 3 mps 763 mmHg 75%
    01:00 +3°C° 0 mm 3 mps 764 mmHg 75%
    02:00 +3°C° 0 mm 3 mps 764 mmHg 75%
    03:00 +3°C° 0 mm 3 mps 764 mmHg 75%
    04:00 +3°C° 0 mm 3 mps 764 mmHg 75%
    05:00 +3°C° 0 mm 2 mps 764 mmHg 76%
    06:00 +3°C° 0 mm 2 mps 764 mmHg 76%
    07:00 +3°C° 0 mm 2 mps 764 mmHg 75%
    08:00 +4°C° 0 mm 2 mps 765 mmHg 75%
    09:00 +4°C° 0 mm 2 mps 765 mmHg 75%
    10:00 +5°C° 0 mm 2 mps 765 mmHg 71%
    11:00 +6°C° 0 mm 2 mps 765 mmHg 68%
    12:00 +7°C° 0 mm 2 mps 765 mmHg 65%
    13:00 +7°C° 0 mm 2 mps 765 mmHg 67%
    14:00 +8°C° 0 mm 1 mps 764 mmHg 69%
    15:00 +8°C° 0 mm 1 mps 764 mmHg 72%
    16:00 +7°C° 0 mm 1 mps 764 mmHg 74%
    17:00 +6°C° 0 mm 2 mps 764 mmHg 77%
    18:00 +5°C° 0 mm 2 mps 764 mmHg 80%
    19:00 +5°C° 0 mm 2 mps 763 mmHg 81%
    20:00 +6°C° 0 mm 2 mps 763 mmHg 82%
    21:00 +5°C° 0 mm 3 mps 763 mmHg 83%
    22:00 +5°C° 0 mm 3 mps 762 mmHg 85%
    23:00 +5°C° 0 mm 3 mps 761 mmHg 88%

    Tomorrow, 20 November, Monday

    Time Temperature Precipitation Wind Pressure Humidity
    00:00 +5°C° 0 mm 4 mps 761 mmHg 90%
    01:00 +6°C° 0.6 mm 4 mps 760 mmHg 91%
    02:00 +7°C° 0.6 mm 5 mps 759 mmHg 92%
    03:00 +8°C° 0.6 mm 6 mps 758 mmHg 92%
    04:00 +9°C° 0.3 mm 6 mps 757 mmHg 92%
    05:00 +9°C° 0.3 mm 7 mps 756 mmHg 91%
    06:00 +10°C° 0.3 mm 7 mps 756 mmHg 90%
    07:00 +10°C° 0.1 mm 7 mps 756 mmHg 90%
    08:00 +11°C° 0.1 mm 7 mps 755 mmHg 90%
    09:00 +11°C° 0.1 mm 8 mps 755 mmHg 90%
    10:00 +12°C° 0 mm 8 mps 755 mmHg 87%
    11:00 +12°C° 0 mm 8 mps 754 mmHg 85%
    12:00 +13°C° 0 mm 8 mps 754 mmHg 83%
    13:00 +12°C° 0.1 mm 8 mps 754 mmHg 83%
    14:00 +12°C° 0.1 mm 8 mps 754 mmHg 84%
    15:00 +12°C° 0.1 mm 8 mps 753 mmHg 84%
    16:00 +12°C° 0.1 mm 7 mps 754 mmHg 86%
    17:00 +13°C° 0.1 mm 6 mps 754 mmHg 88%
    18:00 +12°C° 0.1 mm 5 mps 754 mmHg 89%
    19:00 +12°C° 0.1 mm 4 mps 754 mmHg 91%
    20:00 +12°C° 0.1 mm 4 mps 754 mmHg 92%
    21:00 +12°C° 0.1 mm 3 mps 754 mmHg 94%
    22:00 +12°C° 0.2 mm 3 mps 754 mmHg 95%
    23:00 +12°C° 0.2 mm 3 mps 754 mmHg 95%

    Day after tomorrow, 21 November, Tuesday

    Time Temperature Precipitation Wind Pressure Humidity
    00:00 +12°C° 0.2 mm 3 mps 754 mmHg 96%
    01:00 +12°C° 0.5 mm 3 mps 754 mmHg 95%
    02:00 +12°C° 0.5 mm 4 mps 754 mmHg 94%
    03:00 +13°C° 0.5 mm 5 mps 753 mmHg 93%
    04:00 +13°C° 0 mm 5 mps 753 mmHg 92%
    05:00 +12°C° 0 mm 5 mps 753 mmHg 92%
    06:00 +12°C° 0 mm 5 mps 752 mmHg 91%
    07:00 +12°C° 0 mm 5 mps 752 mmHg 91%
    08:00 +12°C° 0 mm 5 mps 752 mmHg 91%
    09:00 +12°C° 0 mm 5 mps 752 mmHg 91%
    10:00 +11°C° 0 mm 6 mps 751 mmHg 88%
    11:00 +11°C° 0 mm 6 mps 751 mmHg 85%
    12:00 +11°C° 0 mm 6 mps 751 mmHg 82%
    13:00 +12°C° 0.1 mm 7 mps 750 mmHg 82%
    14:00 +12°C° 0.1 mm 7 mps 749 mmHg 82%
    15:00 +12°C° 0.1 mm 7 mps 748 mmHg 82%
    16:00 +12°C° 0.3 mm 8 mps 748 mmHg 83%
    17:00 +12°C° 0.3 mm 8 mps 747 mmHg 83%
    18:00 +12°C° 0.3 mm 8 mps 746 mmHg 84%
    19:00 +13°C° 0.5 mm 9 mps 745 mmHg 84%
    20:00 +13°C° 0.5 mm 9 mps 745 mmHg 85%
    21:00 +13°C° 0.5 mm 9 mps 745 mmHg 86%
    22:00 +13°C° 0.2 mm 9 mps 745 mmHg 86%
    23:00 +13°C° 0.2 mm 8 mps 745 mmHg 87%

    22 November, Wednesday

    Time Temperature Precipitation Wind Pressure Humidity
    00:00 +14°C° 0.2 mm 7 mps 744 mmHg 88%
    01:00 +14°C° 0.4 mm 7 mps 744 mmHg 88%
    02:00 +14°C° 0.4 mm 6 mps 744 mmHg 88%
    03:00 +13°C° 0.4 mm 6 mps 744 mmHg 88%
    04:00 +13°C° 1.2 mm 6 mps 744 mmHg 89%
    05:00 +13°C° 1.2 mm 6 mps 744 mmHg 89%
    06:00 +13°C° 1.2 mm 5 mps 744 mmHg 90%
    07:00 +13°C° 0.8 mm 6 mps 743 mmHg 89%
    08:00 +13°C° 0.8 mm 6 mps 743 mmHg 88%
    09:00 +14°C° 0.8 mm 6 mps 743 mmHg 86%
    10:00 +14°C° 0.4 mm 7 mps 743 mmHg 84%
    11:00 +13°C° 0.4 mm 8 mps 742 mmHg 82%
    12:00 +13°C° 0.4 mm 9 mps 741 mmHg 79%
    13:00 +13°C° 0.3 mm 9 mps 741 mmHg 80%
    14:00 +13°C° 0.3 mm 10 mps 740 mmHg 80%
    15:00 +13°C° 0.3 mm 10 mps 739 mmHg 80%
    16:00 +13°C° 0.7 mm 10 mps 738 mmHg 81%
    17:00 +13°C° 0.7 mm 9 mps 738 mmHg 81%
    18:00 +13°C° 0.7 mm 9 mps 737 mmHg 82%
    19:00 +13°C° 0.6 mm 9 mps 737 mmHg 82%
    20:00 +13°C° 0.6 mm 8 mps 737 mmHg 83%
    21:00 +14°C° 0.6 mm 7 mps 737 mmHg 83%
    22:00 +13°C° 0.4 mm 8 mps 737 mmHg 82%
    23:00 +12°C° 0.4 mm 8 mps 736 mmHg 82%

    23 November, Thursday

    Time Temperature Precipitation Wind Pressure Humidity
    00:00 +12°C° 0.4 mm 8 mps 736 mmHg 81%
    01:00 +12°C° 0.5 mm 8 mps 735 mmHg 81%
    02:00 +12°C° 0.5 mm 8 mps 735 mmHg 81%
    03:00 +12°C° 0.5 mm 8 mps 735 mmHg 80%
    04:00 +12°C° 0.1 mm 8 mps 736 mmHg 81%
    05:00 +12°C° 0.1 mm 8 mps 737 mmHg 81%
    06:00 +12°C° 0.1 mm 7 mps 738 mmHg 81%
    07:00 +11°C° 0.1 mm 8 mps 739 mmHg 79%
    08:00 +11°C° 0.1 mm 8 mps 740 mmHg 76%
    09:00 +10°C° 0.1 mm 9 mps 742 mmHg 73%
    10:00 +11°C° 0 mm 8 mps 742 mmHg 71%
    11:00 +11°C° 0 mm 8 mps 743 mmHg 70%
    12:00 +11°C° 0 mm 7 mps 743 mmHg 69%
    13:00 +11°C° 0.5 mm 7 mps 743 mmHg 72%
    14:00 +12°C° 0.5 mm 8 mps 742 mmHg 75%
    15:00 +12°C° 0.5 mm 8 mps 742 mmHg 77%
    16:00 +12°C° 0.5 mm 8 mps 742 mmHg 78%
    17:00 +12°C° 0.5 mm 9 mps 742 mmHg 79%
    18:00 +13°C° 0.5 mm 9 mps 742 mmHg 79%
    19:00 +12°C° 0.1 mm 9 mps 742 mmHg 79%
    20:00 +12°C° 0.1 mm 8 mps 743 mmHg 78%
    21:00 +11°C° 0.1 mm 8 mps 744 mmHg 77%
    22:00 +11°C° 0 mm 7 mps 744 mmHg 77%
    23:00 +10°C° 0 mm 7 mps 745 mmHg 77%

    24 November, Friday

    Time Temperature Precipitation Wind Pressure Humidity
    00:00 +9°C° 0 mm 6 mps 746 mmHg 78%
    01:00 +9°C° 0 mm 6 mps 746 mmHg 78%
    02:00 +9°C° 0 mm 5 mps 747 mmHg 79%
    03:00 +8°C° 0 mm 4 mps 747 mmHg 80%
    04:00 +9°C° 0.1 mm 3 mps 747 mmHg 81%
    05:00 +9°C° 0.1 mm 3 mps 747 mmHg 81%
    06:00 +9°C° 0.1 mm 2 mps 747 mmHg 82%
    07:00 +8°C° 0.7 mm 2 mps 747 mmHg 83%
    08:00 +8°C° 0.7 mm 2 mps 747 mmHg 85%
    09:00 +8°C° 0.7 mm 2 mps 746 mmHg 86%
    10:00 +8°C° 1.7 mm 3 mps 746 mmHg 88%
    11:00 +7°C° 1.7 mm 4 mps 745 mmHg 89%
    12:00 +7°C° 1.7 mm 5 mps 744 mmHg 90%
    13:00 +8°C° 2.2 mm 5 mps 743 mmHg 90%
    14:00 +9°C° 2.2 mm 6 mps 742 mmHg 89%
    15:00 +9°C° 2.2 mm 6 mps 741 mmHg 88%
    16:00 +9°C° 0.5 mm 6 mps 741 mmHg 89%
    17:00 +10°C° 0.5 mm 5 mps 741 mmHg 89%
    18:00 +10°C° 0.5 mm 5 mps 741 mmHg 89%
    19:00 +10°C° 0.3 mm 5 mps 741 mmHg 87%
    20:00 +10°C° 0.3 mm 5 mps 741 mmHg 85%
    21:00 +10°C° 0.3 mm 6 mps 742 mmHg 84%
    22:00 +9°C° 0.1 mm 6 mps 742 mmHg 84%
    23:00 +8°C° 0.1 mm 6 mps 743 mmHg 85%
    Show more